Simultaneous Nadir Overpasses (SNOs) Predictions

Prediction of SNOs between AQUA and METOP-A Satellite Orbit:

Table of predicted SNOs for the next 14.0 days since TLE Epoch: 2/19/2016
Index Date (AQUA) Time (AQUA) Lat,Lon (AQUA) SZA (AQUA ) Date (METOP-A) Time (METOP-A) Lat,Lon (METOP-A) SZA (METOP-A ) Distance(km) Time Diff (sec)
1 02/22/2016 15:43:26 -73.87, 118.27 95.78 02/22/2016 15:42:51 -73.87, 118.35 95.78 2.35 35
2 02/22/2016 16:32:55 73.94, -74.25 84.29 02/22/2016 16:33:30 73.91, -74.21 84.26 3.41 35
3 02/25/2016 11:17:43 -73.88,-175.33 96.80 02/25/2016 11:17:15 -73.87,-175.25 96.82 3.07 28
4 02/25/2016 12:07:11 73.91, -7.75 83.22 02/25/2016 12:07:54 73.91, -7.83 83.21 2.43 43
5 02/28/2016 06:52:00 -73.87,-108.87 97.87 02/28/2016 06:51:40 -73.86,-108.87 97.88 1.26 20
6 02/28/2016 07:41:29 73.95, 58.59 82.21 02/28/2016 07:42:18 73.94, 58.67 82.19 2.59 49
7 03/02/2016 01:36:42 73.40, 150.94 80.56 03/02/2016 01:35:33 73.35, 149.01 80.61 61.76 69
8 03/02/2016 02:26:17 -73.88, -42.46 98.94 03/02/2016 02:26:04 -73.90, -42.37 98.92 3.10 13
9 03/02/2016 03:15:45 73.92, 125.11 81.09 03/02/2016 03:16:43 73.93, 125.03 81.10 2.69 58




NCC Satellite Simultaneous Nadir Overpasses (SNOs) Prediction Service
